Weather History for Lincoln, CA

Change the Weather History Date:

Thursday, February 7, 2013

  Actual Average (KAUN) Record (KAUN)
Temperature  
Mean Temperature 48 °F -  
Max Temperature 55 °F 56 °F 87 °F (2012)
Min Temperature 41 °F 37 °F 22 °F (1989)
Degree Days  
Heating Degree Days 17    
Moisture  
Dew Point 38 °F    
Average Humidity 74    
Maximum Humidity 93    
Minimum Humidity 44    
Precipitation  
Precipitation 0.02 in - - ()
Sea Level Pressure  
Sea Level Pressure 30.07 in    
Wind  
Wind Speed 9 mph (SSE)    
Max Wind Speed 16 mph    
Max Gust Speed -    
Visibility 10 miles    
Events      
Averages and records for this station are not official NWS values.
T = Trace of Precipitation, MM = Missing Value Source: NWS Daily Summary

Daily Weather History Graph

Daily Weather History Graph

Search for Another Location

Airport:

Trip Planner

Search our weather history database for the weather conditions in past years. The results will help you decide how hot, cold, wet, or windy it might be!

Date:

Astronomy

Feb. 07, 2013 Rise Set
Actual Time 7:05 AM PST 5:34 PM PST
Civil Twilight 6:37 AM PST 6:01 PM PST
Nautical Twilight 6:06 AM PST 6:33 PM PST
Astronomical Twilight 5:35 AM PST 7:04 PM PST
Moon 4:48 AM PST (2/7) 3:05 PM PST (2/7)
Length of Visible Light 11h 24m
Length of Day
10h 28m
Waning Crescent, 8% of the Moon is Illuminated
Feb 7
Waning Crescent
Feb 9
New
Feb 17
First Quarter
Feb 25
Full
Mar 4
Last Quarter

Hourly Weather History & Observations

Time (PST) Temp. Windchill Dew Point Humidity Pressure Visibility Wind Dir Wind Speed Gust Speed Precip Events Conditions
12:15 AM 44.6 °F 39.2 °F 41.0 °F 87% 30.14 in 10.0 mi SE 10.4 mph - N/A   Clear
12:35 AM 42.8 °F 38.0 °F 41.0 °F 93% 30.15 in 10.0 mi SSE 8.1 mph - N/A   Clear
12:55 AM 44.6 °F 40.2 °F 41.0 °F 87% 30.14 in 10.0 mi SE 8.1 mph - N/A   Clear
1:15 AM 42.8 °F 37.0 °F 39.2 °F 87% 30.14 in 10.0 mi SE 10.4 mph - N/A   Clear
1:35 AM 44.6 °F 38.4 °F 39.2 °F 81% 30.14 in 10.0 mi SE 12.7 mph - N/A   Clear
1:55 AM 42.8 °F 36.6 °F 37.4 °F 81% 30.14 in 10.0 mi SSE 11.5 mph - N/A   Clear
2:15 AM 42.8 °F 36.6 °F 37.4 °F 81% 30.14 in 10.0 mi SE 11.5 mph - N/A   Clear
2:35 AM 44.6 °F 39.2 °F 37.4 °F 76% 30.14 in 10.0 mi SE 10.4 mph - N/A   Clear
2:55 AM 44.6 °F 38.8 °F 37.4 °F 76% 30.14 in 10.0 mi SE 11.5 mph - N/A   Clear
3:15 AM 42.8 °F 37.0 °F 37.4 °F 81% 30.14 in 10.0 mi SE 10.4 mph - N/A   Clear
3:35 AM 42.8 °F 38.0 °F 37.4 °F 81% 30.13 in 10.0 mi SE 8.1 mph - N/A   Clear
3:55 AM 42.8 °F 38.6 °F 37.4 °F 81% 30.13 in 10.0 mi SSE 6.9 mph - N/A   Clear
4:15 AM 42.8 °F 37.5 °F 37.4 °F 81% 30.13 in 10.0 mi SE 9.2 mph - N/A   Clear
4:35 AM 42.8 °F 37.5 °F 37.4 °F 81% 30.13 in 10.0 mi SSE 9.2 mph - N/A   Clear
4:55 AM 42.8 °F 37.5 °F 37.4 °F 81% 30.12 in 10.0 mi SE 9.2 mph - N/A   Clear
5:15 AM 44.6 °F 39.2 °F 37.4 °F 76% 30.12 in 10.0 mi SE 10.4 mph - N/A   Clear
5:35 AM 44.6 °F 40.7 °F 39.2 °F 81% 30.12 in 10.0 mi SE 6.9 mph - N/A   Clear
5:55 AM 44.6 °F 40.7 °F 39.2 °F 81% 30.12 in 10.0 mi ESE 6.9 mph - N/A   Scattered Clouds
6:15 AM 44.6 °F 40.7 °F 39.2 °F 81% 30.12 in 10.0 mi SE 6.9 mph - N/A   Mostly Cloudy
6:35 AM 44.6 °F 41.4 °F 39.2 °F 81% 30.12 in 10.0 mi ESE 5.8 mph - N/A   Overcast
6:55 AM 44.6 °F 40.2 °F 39.2 °F 81% 30.11 in 10.0 mi ESE 8.1 mph - N/A   Overcast
7:15 AM 44.6 °F 40.7 °F 39.2 °F 81% 30.11 in 10.0 mi SE 6.9 mph - N/A   Overcast
7:35 AM 44.6 °F 40.7 °F 39.2 °F 81% 30.12 in 10.0 mi SE 6.9 mph - N/A   Overcast
7:55 AM 46.4 °F 42.9 °F 39.2 °F 76% 30.11 in 10.0 mi ESE 6.9 mph - N/A   Overcast
8:15 AM 46.4 °F 41.9 °F 39.2 °F 76% 30.11 in 10.0 mi SE 9.2 mph - N/A   Overcast
8:35 AM 46.4 °F 42.4 °F 39.2 °F 76% 30.11 in 10.0 mi SE 8.1 mph - N/A   Overcast
8:55 AM 46.4 °F 41.9 °F 39.2 °F 76% 30.11 in 10.0 mi SSE 9.2 mph - N/A   Overcast
9:35 AM 46.4 °F 41.9 °F 41.0 °F 81% 30.11 in 10.0 mi SSE 9.2 mph - N/A   Overcast
9:55 AM 46.4 °F 41.9 °F 41.0 °F 81% 30.12 in 10.0 mi South 9.2 mph - N/A   Overcast
10:15 AM 46.4 °F 41.5 °F 42.8 °F 87% 30.12 in 7.0 mi SSE 10.4 mph - N/A   Overcast
10:35 AM 46.4 °F 40.4 °F 42.8 °F 87% 30.11 in 5.0 mi SSE 13.8 mph - N/A   Overcast
10:55 AM 46.4 °F 41.1 °F 42.8 °F 87% 30.11 in 7.0 mi SSE 11.5 mph - N/A   Overcast
11:15 AM 48.2 °F - 42.8 °F 82% 30.11 in 10.0 mi SSE 15.0 mph - N/A   Overcast
11:35 AM 48.2 °F - 42.8 °F 82% 30.10 in 10.0 mi SSE 13.8 mph - N/A   Overcast
11:55 AM 48.2 °F - 42.8 °F 82% 30.10 in 10.0 mi SSE 15.0 mph - N/A   Overcast
12:15 PM 50.0 °F - 44.6 °F 82% 30.09 in 10.0 mi SSE 12.7 mph - N/A   Overcast
12:35 PM 50.0 °F - 44.6 °F 82% 30.07 in 10.0 mi SSE 16.1 mph - N/A   Overcast
12:55 PM 51.8 °F - 42.8 °F 71% 30.07 in 10.0 mi South 11.5 mph - N/A   Overcast
1:15 PM 53.6 °F - 44.6 °F 72% 30.06 in 10.0 mi South 12.7 mph - N/A   Mostly Cloudy
1:35 PM 51.8 °F - 42.8 °F 71% 30.06 in 10.0 mi South 11.5 mph - N/A   Mostly Cloudy
1:55 PM 53.6 °F - 42.8 °F 67% 30.05 in 10.0 mi South 10.4 mph - N/A   Mostly Cloudy
2:15 PM 53.6 °F - 41.0 °F 62% 30.04 in 10.0 mi South 9.2 mph - N/A   Scattered Clouds
2:35 PM 53.6 °F - 39.2 °F 58% 30.03 in 10.0 mi SSE 6.9 mph - 0.01 in   Scattered Clouds
2:55 PM 51.8 °F - 41.0 °F 67% 30.03 in 10.0 mi SSE 3.5 mph - N/A   Mostly Cloudy
3:15 PM 53.6 °F - 37.4 °F 54% 30.03 in 10.0 mi South 11.5 mph - N/A   Overcast
3:35 PM 53.6 °F - 39.2 °F 58% 30.02 in 10.0 mi SSE 9.2 mph - N/A   Mostly Cloudy
3:55 PM 55.4 °F - 41.0 °F 58% 30.01 in 10.0 mi SSE 8.1 mph - N/A   Mostly Cloudy
4:15 PM 53.6 °F - 33.8 °F 47% 30.01 in 10.0 mi South 6.9 mph - N/A   Mostly Cloudy
4:35 PM 53.6 °F - 32.0 °F 44% 30.01 in 10.0 mi South 9.2 mph - 0.01 in   Mostly Cloudy
4:55 PM 53.6 °F - 33.8 °F 47% 30.01 in 10.0 mi SSW 6.9 mph - N/A   Overcast
5:15 PM 50.0 °F - 33.8 °F 54% 30.01 in 10.0 mi South 8.1 mph - N/A   Scattered Clouds
5:35 PM 46.4 °F 42.9 °F 33.8 °F 62% 30.00 in 10.0 mi South 6.9 mph - N/A   Scattered Clouds
5:55 PM 46.4 °F 43.5 °F 33.8 °F 62% 30.00 in 10.0 mi SSE 5.8 mph - N/A   Mostly Cloudy
6:15 PM 44.6 °F 40.7 °F 32.0 °F 61% 30.00 in 10.0 mi South 6.9 mph - N/A   Mostly Cloudy
6:35 PM 42.8 °F 38.0 °F 33.8 °F 70% 30.00 in 10.0 mi South 8.1 mph - N/A   Scattered Clouds
6:55 PM 42.8 °F 39.3 °F 33.8 °F 70% 29.99 in 10.0 mi SSE 5.8 mph - N/A   Clear
7:15 PM 42.8 °F 38.6 °F 33.8 °F 70% 29.99 in 10.0 mi South 6.9 mph - N/A   Clear
7:35 PM 41.0 °F 35.8 °F 33.8 °F 76% 29.99 in 10.0 mi SSE 8.1 mph - N/A   Clear
7:55 PM 41.0 °F 35.8 °F 33.8 °F 76% 30.00 in 10.0 mi South 8.1 mph - N/A   Scattered Clouds
8:15 PM 42.8 °F 38.0 °F 33.8 °F 70% 30.00 in 10.0 mi SSE 8.1 mph - N/A   Scattered Clouds
8:35 PM 44.6 °F 39.7 °F 35.6 °F 71% 29.99 in 10.0 mi SSE 9.2 mph - N/A   Overcast
8:55 PM 42.8 °F 38.6 °F 33.8 °F 70% 29.99 in 10.0 mi SSE 6.9 mph - N/A   Scattered Clouds
9:15 PM 42.8 °F 38.0 °F 35.6 °F 76% 29.99 in 10.0 mi SE 8.1 mph - N/A   Mostly Cloudy
9:55 PM 44.6 °F 40.7 °F 35.6 °F 71% 30.00 in 10.0 mi SE 6.9 mph - N/A   Overcast
10:15 PM 44.6 °F 40.7 °F 35.6 °F 71% 30.00 in 10.0 mi SE 6.9 mph - N/A   Overcast
10:35 PM 44.6 °F 40.7 °F 35.6 °F 71% 29.99 in 10.0 mi SE 6.9 mph - N/A   Overcast
10:55 PM 44.6 °F 40.7 °F 35.6 °F 71% 29.99 in 10.0 mi SE 6.9 mph - N/A   Overcast
11:15 PM 42.8 °F 38.0 °F 35.6 °F 76% 29.99 in 10.0 mi SE 8.1 mph - N/A   Mostly Cloudy
11:35 PM 42.8 °F 38.0 °F 33.8 °F 70% 29.98 in 10.0 mi SE 8.1 mph - N/A   Scattered Clouds
11:55 PM 41.0 °F 36.4 °F 33.8 °F 76% 29.98 in 10.0 mi SE 6.9 mph - N/A   Scattered Clouds